Location: ????? ????
(37.9717°N, 23.4051°E)
Time: 18:16:49
(UTC+00:00)

USA 186 - Pass Details

Date: 18 April 2024
Orbit: 379 x 440 km, 97.1° (Epoch: 27 May)

Event Time Altitude Azimuth Distance (km) Brightness Sun altitude
Exits shadow 17:45:15 - 141° (SE) 1,528 4.1 -8.3°
Reaches altitude 10° 17:45:32 10° 139° (SE) 1,415 3.9 -8.3°
Maximum altitude 17:48:15 31° 74° (ENE) 702 2.5 -8.8°
Drops below altitude 10° 17:50:57 10° 10° (N) 1,408 4.6 -9.3°
Sets 17:53:01 0° 360° (N) 2,261 5.8 -9.7°
